Location: Aubervilles
(48.9167°N, 2.3833°E)
Time: 15:53:02
(UTC+00:00)

ATLAS CENTAUR R/B - Pass Details

Date: 03 February 2023
Orbit: 449 x 650 km, 64.7° (Epoch: 28 March)

Event Time Altitude Azimuth Distance (km) Brightness Sun altitude
Rises 18:56:36 0° 267° (W) 2,969 6.6 -20.8°
Reaches altitude 10° 18:59:32 10° 285° (WNW) 2,037 5.3 -21.3°
Maximum altitude 19:02:51 19° 331° (NNW) 1,492 3.8 -21.9°
Enters shadow 19:05:21 13° 10° (N) 1,783 3.8 -22.3°
